Weather in Asyut

Egypt     27°11′15″N   31°11′09″E
temp.,
°C
wind,
m/s
gust,
m/s
humid.,
%
clouds,
%
prec.,
mm/h
press.,
hPa
HPBL,
m
16 may, sun
sun1623:00+29nne34160 0.0 100958
02:00+27n22160 0.0 100815
05:00+25ne11170 0.0 100811
08:00+30e01110 0.0 1009269
11:00+37wnw2380 0.0 10081180
14:00+40wnw6780 0.0 10062699
17:00+40wnw7880 0.0 10043682
20:00+34nw81390 0.0 1006385
17 may, mon
mon1723:00+27nnw915320 0.0 1009478
02:00+24nnw610420 0.0 1009445
05:00+22nnw47520 0.0 1010338
08:00+25nnw67410 0.0 1012727
11:00+31nnw67230 0.0 10121234
14:00+34nw77160 0.0 10091684
17:00+34nnw77150 0.0 10091775
20:00+29n48190 0.0 1011146
18 may, tue
tue1823:00+28nnw510230 0.0 1011177
02:00+24n611420 0.0 1010316
05:00+23nnw48450 0.0 1011200
08:00+26nnw67340 0.0 1012615
11:00+32nnw66190 0.0 10121235
14:00+36nnw76110 0.0 10091681
17:00+36nnw78100 0.0 10091709
20:00+31nnw611150 0.0 1009211
19 may, wed
wed1923:00+28nnw58200 0.0 1010145
02:00+26nnw47280 0.0 1010134
05:00+23nnw46340 0.0 1010125
08:00+28nnw68220 0.0 1011594
11:00+35nnw78140 0.0 10101226
14:00+38nnw77100 0.0 10071842
17:00+37nnw77110 0.0 10061864
20:00+32nnw511160 0.0 1007154
20 may, thu
thu2023:00+29nnw48210 0.0 1008128
02:00+27nnw58290 0.0 1007164
05:00+24nw35370 0.0 100896
08:00+29nnw68240 0.0 1009533
11:00+36nw88140 0.0 10081367
14:00+39nnw76100 0.0 10062047
17:00+38nnw77100 0.0 10052053
20:00+32nnw46150 0.0 100772